Date String (YYYY-MM-DD hh:mm:ss) UTC,Instrument flags,Ambient pressure (hPa),Sample flow (lpm),Bypass flow (lpm),Sample temperature (°C),Ambient temperature (°C),ASC tube jacket temperature (°C),LED temperature (°C),Box temperature (°C),Sample RH (%),Span deviation,Mass concentration (μg/m³),Mass concentration (μg/m³),Mass concentration (μg/m³)
DateTimeUTC,F1_M11,P_M11,Q1_M11,Q2_M11,T1_M11,T2_M11,T3_M11,T4_M11,T5_M11,U1_M11,ZSPAN_M11,X0_M11,X2_M11,X1_M11
2022-07-18 22:00:00,,0826.0,4.99,0.00,29.3,28.0,00.0,37.9,31.3,26.4,0000.0,0014.75,0006.01,0005.29
2022-07-18 22:01:00,,0826.0,5.00,0.00,29.3,27.9,00.0,37.9,31.3,26.5,0000.0,0014.51,0006.01,0005.26
2022-07-18 22:02:00,,0826.0,5.01,0.00,29.3,27.3,00.0,37.9,31.2,26.4,0000.0,0014.51,0006.01,0005.24
2022-07-18 22:03:00,,0826.0,5.01,0.00,29.3,27.1,00.0,37.8,31.2,26.1,0000.0,0014.80,0006.01,0005.22
2022-07-18 22:04:00,,0825.9,4.99,0.00,29.3,27.1,00.0,37.9,31.1,26.2,0000.0,0015.36,0006.02,0005.21
2022-07-18 22:05:00,,0825.9,5.00,0.00,29.2,27.3,00.0,37.9,31.0,27.0,0000.0,0015.52,0006.00,0005.20
2022-07-18 22:06:00,,0825.9,5.00,0.00,29.2,27.5,00.0,37.9,31.1,27.8,0000.0,0015.59,0006.03,0005.19
2022-07-18 22:07:00,,0825.8,5.00,0.00,29.3,27.7,00.0,37.9,31.2,28.3,0000.0,0015.14,0006.05,0005.19
2022-07-18 22:08:00,,0825.9,5.00,0.00,29.3,28.0,00.0,37.9,31.2,28.9,0000.0,0016.44,0006.09,0005.19
2022-07-18 22:09:00,,0826.0,5.01,0.00,29.3,27.9,00.0,37.9,31.3,28.2,0000.0,0016.47,0006.14,0005.20
2022-07-18 22:10:00,,0825.9,4.99,0.00,29.3,27.3,00.0,37.8,31.2,27.5,0000.0,0015.62,0006.18,0005.21
2022-07-18 22:11:00,,0825.9,5.01,0.00,29.3,27.0,00.0,37.8,31.1,27.0,0000.0,0015.70,0006.21,0005.23
2022-07-18 22:12:00,,0825.7,5.00,0.00,29.2,27.1,00.0,37.8,31.0,27.1,0000.0,0015.38,0006.19,0005.24
2022-07-18 22:13:00,,0825.7,5.00,0.00,29.2,27.3,00.0,37.9,31.0,27.3,0000.0,0014.89,0006.17,0005.24
2022-07-18 22:14:00,,0825.7,5.01,0.00,29.2,27.5,00.0,37.9,31.1,27.3,0000.0,0014.56,0006.18,0005.25
2022-07-18 22:15:00,,0825.8,5.00,0.00,29.2,27.7,00.0,37.9,31.2,27.3,0000.0,0014.21,0006.16,0005.25
2022-07-18 22:16:00,,0825.8,4.99,0.00,29.3,28.0,00.0,37.9,31.3,26.6,0000.0,0014.04,0006.17,0005.27
2022-07-18 22:17:00,,0826.1,4.99,0.00,29.3,28.1,00.0,37.9,31.3,27.2,0000.0,0013.51,0006.14,0005.27
2022-07-18 22:18:00,,0826.0,5.00,0.00,29.3,27.7,00.0,37.9,31.3,26.8,0000.0,0012.63,0006.11,0005.28
2022-07-18 22:19:00,,0826.0,5.00,0.00,29.3,27.3,00.0,37.8,31.2,25.6,0000.0,0010.86,0006.04,0005.27
2022-07-18 22:20:00,,0825.8,4.99,0.00,29.3,27.2,00.0,37.9,31.2,26.5,0000.0,0010.87,0005.96,0005.27
2022-07-18 22:21:00,,0825.8,4.99,0.00,29.3,27.3,00.0,37.9,31.1,26.7,0000.0,0010.63,0005.88,0005.26
2022-07-18 22:22:00,,0825.8,5.00,0.00,29.3,27.5,00.0,37.9,31.1,26.0,0000.0,0010.36,0005.83,0005.25
2022-07-18 22:23:00,,0825.9,5.00,0.00,29.3,27.7,00.0,37.9,31.2,26.4,0000.0,0009.92,0005.81,0005.24
2022-07-18 22:24:00,,0825.9,4.99,0.00,29.3,28.0,00.0,37.9,31.2,25.4,0000.0,0010.11,0005.76,0005.22
2022-07-18 22:25:00,,0825.8,5.01,0.00,29.4,27.9,00.0,37.9,31.3,25.2,0000.0,0010.66,0005.72,0005.21
2022-07-18 22:26:00,,0825.8,4.99,0.00,29.3,27.3,00.0,37.9,31.2,25.5,0000.0,0010.36,0005.74,0005.21
2022-07-18 22:27:00,,0825.8,5.00,0.00,29.3,27.1,00.0,37.9,31.2,24.9,0000.0,0010.20,0005.74,0005.24
2022-07-18 22:28:00,,0825.8,5.00,0.00,29.3,27.1,00.0,37.9,31.1,25.5,0000.0,0010.38,0005.75,0005.27
2022-07-18 22:29:00,,0825.8,5.01,0.00,29.2,27.3,00.0,37.9,31.1,25.3,0000.0,0010.54,0005.78,0005.28
2022-07-18 22:30:00,,0825.7,4.99,0.00,29.2,27.5,00.0,37.9,31.1,25.0,0000.0,0010.93,0005.79,0005.30
2022-07-18 22:31:00,,0825.7,5.00,0.00,29.3,27.8,00.0,37.9,31.2,25.6,0000.0,0011.39,0005.84,0005.32
2022-07-18 22:32:00,,0825.8,5.00,0.00,29.3,28.0,00.0,37.9,31.3,25.1,0000.0,0011.68,0005.90,0005.34
2022-07-18 22:33:00,,0825.8,5.00,0.00,29.3,27.9,00.0,37.9,31.3,24.7,0000.0,0011.65,0005.91,0005.36
2022-07-18 22:34:00,,0825.8,5.00,0.00,29.3,27.4,00.0,37.9,31.2,25.1,0000.0,0011.79,0005.96,0005.39
2022-07-18 22:35:00,,0826.1,5.00,0.00,29.3,27.2,00.0,37.8,31.2,24.9,0000.0,0012.21,0005.98,0005.42
2022-07-18 22:36:00,,0826.0,5.00,0.00,29.3,27.2,00.0,37.9,31.1,24.0,0000.0,0011.64,0006.01,0005.44
2022-07-18 22:37:00,,0826.3,5.00,0.00,29.3,27.4,00.0,37.9,31.1,24.3,0000.0,0011.87,0006.00,0005.45
2022-07-18 22:38:00,,0826.1,5.00,0.00,29.3,27.6,00.0,37.9,31.1,23.9,0000.0,0012.50,0006.01,0005.44
2022-07-18 22:39:00,,0826.2,5.00,0.00,29.3,27.8,00.0,37.9,31.2,23.9,0000.0,0012.67,0006.00,0005.42
2022-07-18 22:40:00,,0826.0,4.99,0.00,29.3,28.1,00.0,37.9,31.3,23.5,0000.0,0012.51,0005.99,0005.41
2022-07-18 22:41:00,,0825.8,5.00,0.00,29.4,28.0,00.0,37.9,31.4,23.7,0000.0,0011.80,0005.96,0005.40
2022-07-18 22:42:00,,0826.0,5.00,0.00,29.4,27.4,00.0,37.9,31.3,23.9,0000.0,0011.65,0005.97,0005.40
2022-07-18 22:43:00,,0826.2,5.00,0.00,29.3,27.2,00.0,37.9,31.2,24.2,0000.0,0011.12,0005.95,0005.40
2022-07-18 22:44:00,,0826.1,5.00,0.00,29.3,27.3,00.0,37.9,31.1,24.1,0000.0,0011.22,0005.99,0005.40
2022-07-18 22:45:00,,0825.8,5.01,0.00,29.3,27.4,00.0,37.9,31.1,24.6,0000.0,0011.55,0005.99,0005.39
2022-07-18 22:46:00,,0825.8,4.99,0.00,29.3,27.7,00.0,37.9,31.2,24.6,0000.0,0011.71,0005.98,0005.39
2022-07-18 22:47:00,,0825.9,5.00,0.00,29.3,27.9,00.0,37.9,31.2,24.1,0000.0,0011.71,0006.00,0005.38
2022-07-18 22:48:00,,0825.9,5.00,0.00,29.4,28.0,00.0,38.0,31.3,25.0,0000.0,0011.88,0006.02,0005.37
2022-07-18 22:49:00,,0825.9,5.01,0.00,29.4,27.6,00.0,37.9,31.3,24.9,0000.0,0011.29,0006.01,0005.36
2022-07-18 22:50:00,,0825.9,4.99,0.00,29.3,27.2,00.0,37.9,31.2,24.6,0000.0,0010.87,0005.99,0005.35
2022-07-18 22:51:00,,0825.9,5.00,0.00,29.3,27.2,00.0,37.9,31.2,25.0,0000.0,0010.86,0005.97,0005.34
2022-07-18 22:52:00,,0825.8,5.00,0.00,29.3,27.3,00.0,37.9,31.1,24.8,0000.0,0010.88,0005.95,0005.34
2022-07-18 22:53:00,,0825.8,5.00,0.00,29.3,27.5,00.0,37.9,31.1,24.4,0000.0,0010.55,0005.92,0005.33
2022-07-18 22:54:00,,0825.8,4.99,0.00,29.3,27.7,00.0,37.9,31.2,24.4,0000.0,0010.52,0005.92,0005.33
2022-07-18 22:55:00,,0825.8,5.00,0.00,29.3,27.9,00.0,38.0,31.3,24.3,0000.0,0011.36,0005.90,0005.31
2022-07-18 22:56:00,,0825.8,4.99,0.00,29.4,28.1,00.0,38.0,31.3,24.4,0000.0,0011.08,0005.89,0005.29
2022-07-18 22:57:00,,0825.8,5.01,0.00,29.4,27.7,00.0,37.9,31.3,24.8,0000.0,0010.98,0005.87,0005.27
2022-07-18 22:58:00,,0825.9,5.00,0.00,29.3,27.2,00.0,37.9,31.2,24.5,0000.0,0011.10,0005.83,0005.23
2022-07-18 22:59:00,,0825.8,5.00,0.00,29.3,27.2,00.0,37.9,31.2,24.2,0000.0,0010.53,0005.74,0005.19
